Time,TemperatureF,DewpointF,PressureIn,WindDirection,WindDirectionDegrees,WindSpeedMPH,WindSpeedGustMPH,Humidity,HourlyPrecipIn,Conditions,Clouds,dailyrainin,SoftwareType,DateUTC
2013-04-04 03:00:00,43.0,-99.9,-100.00,NE,48,3.0,-999.0,-999,-99.99,,,-99.99,,2013-04-04 09:00:00,
2013-04-04 03:54:00,43.0,-99.9,-100.00,NE,48,3.0,-999.0,-999,-99.99,,,-99.99,,2013-04-04 09:54:00,
2013-04-04 04:00:00,41.0,-99.9,-100.00,WNW,293,4.0,-999.0,-999,-99.99,,,-99.99,,2013-04-04 10:00:00,
2013-04-04 04:54:00,41.0,-99.9,-100.00,WNW,293,4.0,-999.0,-999,-99.99,,,-99.99,,2013-04-04 10:54:00,
2013-04-04 05:00:00,39.0,-99.9,-100.00,SW,225,3.0,-999.0,-999,-99.99,,,-99.99,,2013-04-04 11:00:00,
2013-04-04 05:55:00,39.0,-99.9,-100.00,SW,225,3.0,-999.0,-999,-99.99,,,-99.99,,2013-04-04 11:55:00,
2013-04-04 06:00:00,39.0,-99.9,-100.00,SW,217,3.0,-999.0,-999,-99.99,,,-99.99,,2013-04-04 12:00:00,
2013-04-04 06:53:00,39.0,-99.9,-100.00,SW,217,3.0,-999.0,-999,-99.99,,,-99.99,,2013-04-04 12:53:00,
2013-04-04 07:00:00,37.0,-99.9,-100.00,South,184,2.0,-999.0,-999,-99.99,,,-99.99,,2013-04-04 13:00:00,
2013-04-04 07:53:00,37.0,-99.9,-100.00,South,184,2.0,-999.0,-999,-99.99,,,-99.99,,2013-04-04 13:53:00,
2013-04-04 08:00:00,44.0,-99.9,-100.00,SSW,200,4.0,-999.0,-999,-99.99,,,-99.99,,2013-04-04 14:00:00,
2013-04-04 08:53:00,44.0,-99.9,-100.00,SSW,200,4.0,-999.0,-999,-99.99,,,-99.99,,2013-04-04 14:53:00,
2013-04-04 09:00:00,52.0,-99.9,-100.00,ESE,115,2.0,-999.0,-999,-99.99,,,-99.99,,2013-04-04 15:00:00,
2013-04-04 09:54:00,52.0,-99.9,-100.00,ESE,115,2.0,-999.0,-999,-99.99,,,-99.99,,2013-04-04 15:54:00,
2013-04-04 10:00:00,54.0,-99.9,-100.00,ESE,109,4.0,-999.0,-999,-99.99,,,-99.99,,2013-04-04 16:00:00,
2013-04-04 10:55:00,54.0,-99.9,-100.00,ESE,109,4.0,-999.0,-999,-99.99,,,-99.99,,2013-04-04 16:55:00,
2013-04-04 11:00:00,59.0,-99.9,-100.00,SE,125,4.0,-999.0,-999,-99.99,,,-99.99,,2013-04-04 17:00:00,
2013-04-04 11:53:00,59.0,-99.9,-100.00,SE,125,4.0,-999.0,-999,-99.99,,,-99.99,,2013-04-04 17:53:00,
2013-04-04 12:00:00,63.0,-99.9,-100.00,East,89,3.0,-999.0,-999,-99.99,,,-99.99,,2013-04-04 18:00:00,
2013-04-04 12:53:00,63.0,-99.9,-100.00,East,89,3.0,-999.0,-999,-99.99,,,-99.99,,2013-04-04 18:53:00,
2013-04-04 13:00:00,63.0,-99.9,-100.00,NNE,27,5.0,-999.0,-999,-99.99,,,-99.99,,2013-04-04 19:00:00,
2013-04-04 13:53:00,63.0,-99.9,-100.00,NNE,27,5.0,-999.0,-999,-99.99,,,-99.99,,2013-04-04 19:53:00,
2013-04-04 14:00:00,67.0,-99.9,-100.00,East,84,2.0,-999.0,-999,-99.99,,,-99.99,,2013-04-04 20:00:00,
2013-04-04 14:53:00,67.0,-99.9,-100.00,East,84,2.0,-999.0,-999,-99.99,,,-99.99,,2013-04-04 20:53:00,
2013-04-04 15:00:00,68.0,-99.9,-100.00,ENE,77,4.0,-999.0,-999,-99.99,,,-99.99,,2013-04-04 21:00:00,
2013-04-04 15:53:00,68.0,-99.9,-100.00,ENE,77,4.0,-999.0,-999,-99.99,,,-99.99,,2013-04-04 21:53:00,
2013-04-04 16:00:00,67.0,-99.9,-100.00,East,91,7.0,-999.0,-999,-99.99,,,-99.99,,2013-04-04 22:00:00,
2013-04-04 16:53:00,67.0,-99.9,-100.00,East,91,7.0,-999.0,-999,-99.99,,,-99.99,,2013-04-04 22:53:00,
2013-04-04 17:00:00,68.0,-99.9,-100.00,East,94,5.0,-999.0,-999,-99.99,,,-99.99,,2013-04-04 23:00:00,
2013-04-04 17:53:00,68.0,-99.9,-100.00,East,94,5.0,-999.0,-999,-99.99,,,-99.99,,2013-04-04 23:53:00,
2013-04-04 18:00:00,67.0,-99.9,-100.00,ESE,108,7.0,-999.0,-999,-99.99,,,-99.99,,2013-04-05 00:00:00,
2013-04-04 18:52:00,67.0,-99.9,-100.00,ESE,108,7.0,-999.0,-999,-99.99,,,-99.99,,2013-04-05 00:52:00,
2013-04-04 19:00:00,65.0,-99.9,-100.00,ESE,122,7.0,-999.0,-999,-99.99,,,-99.99,,2013-04-05 01:00:00,
2013-04-04 19:54:00,65.0,-99.9,-100.00,ESE,122,7.0,-999.0,-999,-99.99,,,-99.99,,2013-04-05 01:54:00,
2013-04-04 20:00:00,62.0,-99.9,-100.00,SE,132,7.0,-999.0,-999,-99.99,,,-99.99,,2013-04-05 02:00:00,
2013-04-04 20:53:00,62.0,-99.9,-100.00,SE,132,7.0,-999.0,-999,-99.99,,,-99.99,,2013-04-05 02:53:00,
2013-04-04 21:00:00,60.0,-99.9,-100.00,SE,136,5.0,-999.0,-999,-99.99,,,-99.99,,2013-04-05 03:00:00,
2013-04-04 21:55:00,60.0,-99.9,-100.00,SE,136,5.0,-999.0,-999,-99.99,,,-99.99,,2013-04-05 03:55:00,
2013-04-04 22:00:00,56.0,-99.9,-100.00,North,353,2.0,-999.0,-999,-99.99,,,-99.99,,2013-04-05 04:00:00,
2013-04-04 22:53:00,56.0,-99.9,-100.00,North,353,2.0,-999.0,-999,-99.99,,,-99.99,,2013-04-05 04:53:00,
2013-04-04 23:00:00,53.0,-99.9,-100.00,SSW,197,2.0,-999.0,-999,-99.99,,,-99.99,,2013-04-05 05:00:00,
2013-04-04 23:53:00,53.0,-99.9,-100.00,SSW,197,2.0,-999.0,-999,-99.99,,,-99.99,,2013-04-05 05:53:00,